Location: Unspecified
(69.1139°N, 0.0000°E)
Time: 04:02:15
(UTC+00:00)

NOAA 16 DEB - Visible Passes

Search period start: 04 April 2026 00:00
Search period end: 14 April 2026 00:00
Orbit: 804 x 821 km, 98.7° (Epoch: 26 March)

Date Brightness Start Highest point End Pass type
(mag) Time Alt. Az. Time Alt. Az. Time Alt. Az.
4 Apr ? 20:57:26 10° SSW 21:02:11 33° W 21:06:58 10° NNW visible
4 Apr ? 22:41:52 10° W 22:43:52 12° WNW 22:45:53 10° NW visible
5 Apr ? 20:34:00 10° SSW 20:38:59 41° W 20:44:03 10° NNW visible
5 Apr ? 22:17:21 10° WSW 22:20:26 15° WNW 22:23:30 10° NW visible
6 Apr ? 21:53:17 10° SW 21:57:02 19° WNW 22:00:49 10° NNW visible
7 Apr ? 21:29:25 10° SW 21:33:42 24° W 21:38:00 10° NNW visible
8 Apr ? 21:05:46 10° SSW 21:10:25 30° W 21:15:06 10° NNW visible
8 Apr ? 22:50:46 10° W 22:52:11 11° WNW 22:53:38 10° NW visible
9 Apr ? 20:42:15 10° SSW 20:47:12 38° W 20:52:10 10° NNW visible
9 Apr ? 22:25:56 10° WSW 22:28:42 14° WNW 22:31:29 10° NW visible
10 Apr ? 22:01:43 10° WSW 22:05:16 18° WNW 22:08:51 10° NW visible
11 Apr ? 21:37:46 10° SW 21:41:54 22° W 21:46:02 10° NNW visible
12 Apr ? 21:14:01 10° SSW 21:18:34 28° W 21:23:09 10° NNW visible
12 Apr ? 23:00:13 10° WNW 23:00:26 10° WNW 23:00:40 10° WNW visible
13 Apr ? 22:34:29 10° W 22:36:54 13° WNW 22:39:20 10° NW visible
